747  
ASUS41 KPHI 290310  
RWRPHI  
 
REGIONAL WEATHER ROUNDUP  
NATIONAL WEATHER SERVICE MOUNT HOLLY NJ  
1000 PM EST FRI NOV 28 2014  
 
NOTE: "FAIR" INDICATES FEW OR NO CLOUDS BELOW 12,000 FEET WITH NO  
SIGNIFICANT WEATHER AND/OR S TO VISIBILITY
.  
 
* = STATION DOES NOT REPORT PRECIPITATION (E.G. RAIN, SNOW, ETC.)  
OR FOG.
 
 
NJZ015>026-290400-  
SOUTHERN NEW JERSEY  
 
CITY SKY/WX TMP DP RH WIND PRES REMARKS
 
POMONA CLEAR 21 15 78 CALM 30.30R  
RIO GRANDE* CLEAR 27 18 69 CALM 30.29S  
MILLVILLE CLEAR 24 19 81 CALM 30.29S  
WRIGHTSTOWN CLEAR 28 16 59 W3 30.24R  
MOUNT HOLLY CLEAR 24 17 74 CALM 30.29R  
TRENTON CLEAR 24 15 68 CALM 30.27S  
 

 
NJZ001>014-290400-  
NORTHERN NEW JERSEY  
 
CITY SKY/WX TMP DP RH WIND PRES REMARKS
 
SUSSEX CLEAR 14 12 92 CALM 30.25R  
ANDOVER* N/A 17 14 88 CALM 30.25R  
MORRISTOWN N/A 23 19 86 CALM 30.28R  
NEWARK PTCLDY 28 13 53 NW6 30.28S WCI 22  
TETERBORO CLEAR 28 15 58 NW3 30.27S  
CALDWELL CLEAR 22 14 71 CALM 30.28R  
SOMERVILLE CLEAR 21 16 81 CALM 30.26S  
ALLAIRE* CLEAR 27 10 50 W5 30.27R WCI 21  
TOMS RIVER* FAIR 21 16 79 CALM 30.29R  
 

 
PAZ043-044-047-054-055-060>062-066>071-290400-  
EASTERN PENNSYLVANIA  
 
CITY SKY/WX TMP DP RH WIND PRES REMARKS
 
PHILADELPHIA MOCLDY 32 16 51 W8 30.29S WCI 25  
NORTH PHILA CLEAR 30 16 56 CALM 30.29S  
BLUE BELL PTCLDY 27 23 86 CALM 30.26S  
DOYLESTOWN CLEAR 22 17 81 CALM 30.26S  
QUAKERTOWN* CLEAR 19 16 86 CALM 30.26S  
POTTSTOWN PTCLDY 23 17 78 CALM 30.27F  
LANCASTER PTCLDY 26 15 63 CALM 30.26F  
COATESVILLE PTCLDY 25 18 74 W3 30.26S  
READING CLEAR 28 15 58 W5 30.25F WCI 23  
ALLENTOWN CLEAR 21 13 71 CALM 30.26S  
MOUNT POCONO CLEAR 16 8 71 NW5 30.14S WCI 9  
HAZLETON CLEAR 21 14 73 W3 30.19F  
WILKES BARRE CLEAR 15 9 76 S6 30.22S WCI 6  
 

 
DEZALL-MDZ008-012-015-019-020-290400-  
DELAWARE AND EASTERN MARYLAND  
 
CITY SKY/WX TMP DP RH WIND PRES REMARKS
 
WILMINGTON PTCLDY 29 18 63 CALM 30.29F  
DOVER CLEAR 27 19 72 SW3 30.28S  
GEORGETOWN CLEAR 27 19 72 CALM 30.31S  
EASTON CLEAR 28 24 84 CALM 30.33F  
PATUXENT PTCLDY 24 19 81 CALM 30.30F  
OCEAN CITY CLEAR 25 21 85 CALM 30.32R  
WALLOPS ISLAND CLEAR 29 20 69 CALM 30.32S  
CAMBRIDGE CLEAR 30 25 80 CALM 30.29F  
SALISBURY CLEAR 26 20 77 E3 30.31S  
 

 
PAZ001-021-NYZ056-072-MDZ011-DCZ001-290400-  
OTHER NEARBY LOCATIONS  
 
CITY SKY/WX TMP DP RH WIND PRES REMARKS
 
HARRISBURG MOCLDY 26 16 65 NW7 30.27S WCI 18  
STATE COLLEGE PTCLDY 20 13 72 CALM 30.21F  
WILLIAMSPORT PTCLDY 22 15 75 N3 30.25S  
BINGHAMTON PTCLDY 27 8 44 SE3 30.16F  
NEW YORK CITY CLEAR 30 11 45 NW7 30.28S WCI 23  
BALTIMORE PTCLDY 26 19 74 CALM 30.29S  
WASHINGTON DC PTCLDY 35 18 49 N3 30.30F  
 

 
 
CLICK HERE TO GO TO PREVIOUS BULLETINS.

The Nexlab PA Page
The Nexlab NJ Page
The Nexlab DE Page
The Nexlab MD Page Main Text Page